Dewpoint
60 60 60 60 60 59 59 59 59 59 59 59 59 59 58 58 56 47 47 45 47 65 61 43 33 34 32 26 25 26 24 44 49 47 41 40 36 40 41 39 47 54 54 54 51
57 59 59 60 59 59 59 59 59 59 59 59 59 59 58 58 47 36 55 61 62 63 38 38 28 29 25 21 21 24 27 41 45 45 41 38 27 34 42 45 50 53 53 52 51
56 57 58 58 59 59 59 58 58 59 59 59 59 59 58 56 38 33 64 62 61 61 42 38 36 25 19 18 16 19 26 41 38 37 41 29 23 37 46 45 49 49 50 50 49
57 56 56 57 57 58 58 59 58 58 58 59 59 59 58 51 27 35 65 64 61 40 34 31 27 17 16 16 16 13 20 25 36 35 25 24 24 41 49 49 50 51 50 51 52
57 57 56 57 57 57 57 57 58 58 58 58 59 59 53 32 29 49 66 63 43 37 36 36 25 14 13 14 14 13 14 18 26 28 28 26 25 40 47 47 52 51 50 50 50
57 57 57 57 57 56 56 56 56 57 57 58 59 59 48 25 32 50 46 44 33 32 33 31 18 14 12 11 12 13 11 14 20 25 31 27 25 41 44 47 49 51 51 50 50
57 57 57 57 56 56 56 55 56 56 57 58 58 52 36 23 22 41 38 36 34 34 35 30 22 20 13 11 9 10 11 13 18 17 31 30 25 41 46 47 47 48 49 50 51
55 56 56 56 56 56 56 55 55 56 56 57 58 48 37 27 25 25 22 21 33 37 34 31 27 20 18 16 14 10 13 16 14 15 18 27 26 41 46 47 46 47 47 49 50
55 55 55 55 55 56 56 55 55 56 56 58 53 48 32 39 31 27 23 20 18 22 25 26 23 18 19 16 13 14 10 11 12 14 18 25 35 39 42 46 47 46 47 47 49
54 54 54 54 54 55 54 54 54 55 54 48 43 38 38 34 23 25 21 19 15 18 23 23 21 18 16 16 8 9 11 8 9 9 22 25 35 36 37 43 48 48 48 48 49
54 54 54 54 54 54 52 49 44 45 42 38 37 34 30 32 32 20 21 16 16 16 20 21 18 17 14 15 15 10 12 8 7 7 24 24 33 34 34 34 48 49 49 48 49
53 53 53 53 53 53 52 45 32 29 26 26 28 34 35 34 27 20 22 18 20 14 21 21 15 17 16 15 16 12 12 13 11 9 19 24 23 33 30 42 45 48 49 49 50
53 53 53 53 52 52 48 35 34 32 28 26 24 24 33 32 29 21 21 22 19 17 17 18 15 15 13 10 12 13 12 13 14 18 23 26 27 31 42 47 49 50 49 51 53
54 54 54 53 49 46 42 39 37 34 30 26 20 20 23 29 25 26 20 18 17 15 17 17 18 14 11 9 10 12 15 12 11 18 18 22 18 32 43 47 48 48 50 52 53
54 54 54 52 47 47 41 40 39 37 26 22 18 22 22 23 22 22 23 18 15 15 15 15 17 15 10 10 10 11 16 14 13 14 15 20 17 18 40 45 46 48 50 52 58
53 54 54 47 48 48 44 42 42 32 27 16 21 19 19 20 19 19 22 23 23 18 17 14 17 15 13 12 12 14 15 15 17 13 10 15 18 17 26 43 47 50 55 56 59
53 53 52 47 46 45 39 44 31 23 21 16 18 21 21 17 18 19 18 21 19 16 15 16 15 15 14 10 10 14 12 14 13 13 12 13 15 13 24 43 48 55 56 58 60
52 51 50 47 47 42 41 42 26 19 14 14 18 21 23 23 21 16 19 17 21 18 17 15 14 15 17 10 11 16 14 15 14 16 12 14 12 30 47 47 55 56 57 59 60
51 50 49 47 46 44 42 36 27 25 22 21 18 18 19 18 17 21 20 18 17 18 15 18 16 18 16 15 15 17 11 13 15 18 13 14 45 48 49 54 55 56 57 58 59
49 49 46 45 47 45 39 34 30 27 24 22 20 19 18 19 19 21 25 30 23 19 17 15 16 17 21 15 17 16 18 10 12 14 15 26 42 44 51 54 54 54 55 57 58
50 47 47 44 45 42 34 32 31 28 26 26 24 24 24 21 20 22 28 31 33 32 19 15 18 16 19 19 17 16 13 16 18 22 17 30 42 47 51 55 56 56 56 56 58
49 43 46 46 37 39 34 33 33 28 28 27 28 27 25 25 26 20 21 30 34 36 32 20 25 19 17 22 20 16 14 18 19 18 27 33 43 55 56 53 54 57 60 58 56
46 45 47 45 35 34 35 32 32 29 29 28 28 28 28 27 27 27 25 29 37 39 36 36 18 17 19 27 20 17 19 20 31 35 31 28 49 51 52 50 53 57 60 55 54
46 41 45 44 40 37 36 35 33 34 31 29 29 29 28 26 27 27 27 28 41 41 48 44 29 21 17 27 23 21 20 20 26 33 30 32 48 51 51 51 52 56 60 55 56
46 42 44 38 37 38 38 36 33 33 33 32 32 28 27 29 30 27 38 41 40 44 39 38 24 32 24 27 31 23 18 17 24 27 28 44 46 49 56 54 55 58 57 56 57
44 43 43 40 40 39 38 36 34 34 34 33 34 35 37 32 34 32 40 41 41 41 39 36 33 35 29 30 27 28 19 16 18 22 31 53 49 53 56 58 57 57 56 57 57
48 49 46 41 39 36 35 35 35 36 36 36 35 36 36 37 39 40 45 46 45 42 37 36 43 35 31 35 36 33 31 17 18 22 46 45 52 57 56 56 55 55 56 55 56
Lifted_Index
9 9 9 9 9 9 9 10 10 10 10 11 11 11 12 12 10 8 6 6 8 9 9 8 7 6 5 4 4 4 2 0 -1 -1 -1 -1 -0 1 1 2 1 1 1 3 4
10 10 10 9 9 9 9 9 10 10 11 11 11 11 12 11 10 7 7 7 8 9 9 8 7 6 5 4 4 4 2 0 -1 -1 -1 -1 -0 0 1 1 1 1 2 3 4
12 11 11 10 10 9 9 9 9 10 10 11 11 11 12 11 8 7 7 8 9 9 9 8 7 7 6 5 4 4 2 1 -0 -0 -0 -0 -0 -0 0 0 1 1 2 2 3
12 12 12 12 11 11 10 9 9 9 10 11 11 12 12 10 8 7 8 8 9 9 9 8 8 7 6 5 4 4 2 1 1 1 0 0 -0 -1 -1 -0 0 1 1 2 2
12 12 12 12 12 12 12 11 10 9 9 10 11 11 11 9 8 8 8 9 9 9 9 8 8 7 6 6 5 4 3 2 1 1 1 1 0 -1 -1 -1 -1 -0 1 1 1
12 12 13 13 13 13 13 12 11 10 9 9 10 11 10 9 9 9 9 9 9 8 8 8 8 7 7 6 6 5 3 2 2 1 1 1 0 -1 -1 -1 -1 -1 0 1 1
13 13 13 13 13 13 13 13 13 12 10 9 10 10 9 9 9 9 9 9 8 8 7 7 8 8 7 7 6 5 4 3 2 2 1 1 -0 -1 -2 -1 -1 -1 0 1 1
14 14 14 14 14 14 14 14 13 12 11 10 10 9 8 9 10 10 10 10 9 8 8 8 8 8 7 6 6 5 5 4 3 2 1 1 -0 -2 -2 -2 -1 -1 0 1 1
16 15 15 15 15 14 14 13 13 12 11 10 10 9 8 9 9 10 10 10 10 9 9 8 8 8 7 6 5 4 4 3 3 2 2 1 -0 -1 -2 -1 -1 -1 -0 1 1
16 16 16 16 16 15 13 12 11 11 10 10 9 9 8 8 9 9 10 10 10 10 9 8 8 7 6 5 4 3 3 3 2 2 1 0 -1 -1 -1 -1 -1 -1 -0 0 1
16 17 17 16 15 14 12 11 11 10 9 9 9 9 8 8 9 9 10 10 9 8 8 7 6 5 5 5 4 3 3 3 2 1 0 -0 -0 -1 -1 -1 -2 -2 -1 -0 -0
17 17 17 16 14 12 11 11 12 11 9 9 9 9 8 8 9 9 9 9 8 7 6 6 5 5 5 5 5 4 3 3 1 0 -0 -0 -0 -0 -1 -2 -2 -2 -2 -1 -1
17 17 17 15 12 11 11 12 12 11 9 8 8 8 8 8 8 9 9 9 8 6 6 6 5 5 5 5 5 4 3 2 1 0 -0 -1 -0 -0 -1 -2 -2 -2 -2 -2 -2
17 17 15 14 12 11 11 12 12 10 8 7 8 8 8 8 8 8 9 8 8 7 6 6 6 6 5 5 4 4 3 2 1 0 -0 -0 -0 -0 -1 -2 -1 -1 -2 -3 -3
17 17 15 13 12 12 12 12 11 9 6 7 8 9 9 8 8 8 8 8 8 7 7 6 6 6 5 5 4 3 3 2 1 1 0 -0 -0 -0 -1 -1 -1 -1 -1 -3 -4
17 17 16 14 13 12 12 11 10 7 6 7 9 9 9 8 8 8 8 8 7 7 7 6 6 6 5 4 3 3 2 2 1 1 0 0 -0 0 0 -0 -0 -1 -1 -3 -4
16 16 15 14 13 12 11 10 7 6 7 8 9 9 9 8 7 7 7 8 7 6 5 5 6 5 5 4 3 3 2 1 1 1 1 0 0 1 0 -1 -1 -2 -2 -3 -4
14 14 13 13 13 12 11 9 7 7 9 10 9 9 8 7 7 6 6 7 7 6 5 4 4 4 4 3 3 2 2 2 1 1 1 0 -0 -1 -1 -2 -3 -3 -3 -4 -4
13 12 12 12 12 12 11 9 8 9 9 10 9 8 7 6 6 5 5 5 5 5 5 4 3 3 3 2 2 2 2 2 1 1 0 -0 -2 -2 -3 -3 -3 -3 -3 -3 -4
11 11 10 11 11 11 10 9 9 9 9 9 8 8 6 6 5 4 4 4 3 3 3 3 3 3 2 1 1 1 2 2 1 1 0 -1 -2 -3 -3 -3 -3 -3 -3 -3 -3
10 10 10 10 11 10 9 9 9 9 9 8 8 7 6 5 5 4 3 3 2 1 1 2 2 2 1 1 0 1 1 1 1 1 1 -0 -2 -3 -4 -4 -3 -3 -3 -3 -3
10 9 9 9 10 10 9 8 8 8 8 7 7 7 6 5 5 4 3 2 1 0 0 0 1 1 1 1 0 0 1 1 1 1 1 -0 -2 -3 -3 -3 -2 -2 -3 -3 -3
9 9 8 9 9 9 8 8 7 7 7 7 7 6 6 5 4 4 3 2 1 -0 -0 -0 0 1 1 0 0 0 1 1 1 1 1 -0 -2 -2 -3 -2 -1 -1 -2 -3 -3
9 8 8 8 8 8 8 7 7 6 6 6 6 6 6 5 4 3 2 1 0 -0 -0 -0 0 1 1 1 0 0 1 1 0 0 0 -0 -1 -2 -2 -1 -1 -2 -3 -3 -2
9 9 8 8 8 8 8 7 6 6 6 6 5 5 5 4 2 1 0 0 0 0 -0 -0 0 0 1 1 0 0 0 0 0 -0 -0 -1 -2 -2 -2 -2 -2 -3 -3 -3 -3
9 9 8 8 8 7 7 7 6 5 5 5 5 4 3 2 0 -0 -1 0 1 1 0 0 -0 -0 0 0 0 -0 0 0 0 -0 -1 -3 -3 -2 -2 -3 -3 -3 -4 -3 -3
9 9 8 8 7 7 7 6 6 5 5 5 4 3 2 1 -0 -1 -1 0 2 2 1 -0 -1 -1 -0 -0 -0 -0 -0 0 0 -1 -2 -3 -3 -3 -3 -4 -4 -4 -4 -3 -3